N6EQ Weather Reports


time (UTC)temp
C
wind
direction
speed
KPH
gust
KPH
rain 1hr
cm
rain 24hr
cm
rain mn
cm
humidity
%
barometer
mb
20260505221545 23 210 17.7 24.1 0.00 0.00 0.00 25 947.4
20260505220050 23 226 16.1 30.6 0.00 0.00 0.00 25 947.7
20260505214538 23 283 4.8 16.1 0.00 0.00 0.00 25 947.9
20260505213036 23 150 12.9 20.9 0.00 0.00 0.00 25 948.1
20260505211536 22 130 1.6 11.3 0.00 0.00 0.00 26 948.2
20260505210037 23 233 6.4 16.1 0.00 0.00 0.00 26 948.4
20260505204536 23 212 9.7 17.7 0.00 0.00 0.00 25 948.5
20260505203034 22 114 1.6 12.9 0.00 0.00 0.00 27 948.5
20260505201533 22 212 12.9 30.6 0.00 0.00 0.00 28 948.6
20260505200039 22 252 12.9 22.5 0.00 0.00 0.00 27 948.8
20260505194531 23 293 6.4 27.4 0.00 0.00 0.00 28 948.8
20260505193129 23 219 12.9 25.7 0.00 0.00 0.00 28 948.8
20260505191530 22 188 8.0 30.6 0.00 0.00 0.00 29 949.0
20260505190025 22 11.3 20.9 0.00 0.00 0.00 29 949.2
20260505184524 22 14.5 27.4 0.00 0.00 0.00 31 949.3
20260505183025 21 4.8 22.5 0.00 0.00 0.00 32 949.3
20260505181523 21 6.4 24.1 0.00 0.00 0.00 33 949.4
20260505180019 21 264 9.7 19.3 0.00 0.00 0.00 32 949.4
20260505174518 21 6.4 19.3 0.00 0.00 0.00 33 949.4
20260505173015 21 215 4.8 19.3 0.00 0.00 0.00 34 949.4
20260505171513 20 249 3.2 17.7 0.00 0.00 0.00 35 949.4
20260505170012 20 248 3.2 16.1 0.00 0.00 0.00 35 949.3
20260505164512 20 11.3 19.3 0.00 0.00 0.00 36 949.3
20260505163011 20 4.8 24.1 0.00 0.00 0.00 37 949.2
20260505161528 19 200 1.6 19.3 0.00 0.00 0.00 39 949.3
20260505153013 18 254 1.6 11.3 0.00 0.00 0.00 44 949.2
20260505151507 17 227 0.0 4.8 0.00 0.00 0.00 44 949.3
20260505140106 16 307 0.0 0.0 0.00 0.00 0.00 48 949.0
20260505130110 15 108 0.0 3.2 0.00 0.00 0.00 47 948.3
20260505124553 15 78 0.0 1.6 0.00 0.00 0.00 47 948.2
20260505123054 16 158 0.0 6.4 0.00 0.00 0.00 47 948.3
20260505121547 16 204 0.0 1.6 0.00 0.00 0.00 46 948.4
20260505120046 16 226 0.0 6.4 0.00 0.00 0.00 45 948.3
20260505114543 16 226 1.6 8.0 0.00 0.00 0.00 44 948.3
20260505113041 17 162 3.2 14.5 0.00 0.00 0.00 43 948.4
20260505111537 17 214 9.7 19.3 0.00 0.00 0.00 42 948.2
20260505101535 17 207 3.2 9.7 0.00 0.00 0.00 41 947.9
20260505100033 17 207 0.0 11.3 0.00 0.00 0.00 40 948.0
20260505094527 18 200 8.0 14.5 0.00 0.00 0.00 40 948.0
20260505093028 18 205 6.4 19.3 0.00 0.00 0.00 39 948.0
20260505091527 18 141 1.6 9.7 0.00 0.00 0.00 39 948.0
20260505090036 18 146 0.0 11.3 0.00 0.00 0.00 38 948.2
20260505084521 18 223 4.8 11.3 0.00 0.00 0.00 38 948.3
20260505083019 18 243 0.0 1.6 0.00 0.00 0.00 37 948.4
20260505081516 18 263 0.0 9.7 0.00 0.00 0.00 37 948.5
20260505080035 19 231 0.0 1.6 0.00 0.00 0.00 36 948.5
20260505074511 19 197 4.8 12.9 0.00 0.00 0.00 35 948.5
20260505073016 20 176 6.4 12.9 0.00 0.00 0.00 35 948.2
20260505071505 20 171 11.3 27.4 0.00 0.00 0.00 34 948.4
20260505070003 20 129 14.5 27.4 0.00 0.00 0.00 33 948.4
20260505064601 21 143 16.1 29.0 0.00 0.00 0.00 32 948.3
20260505063059 21 164 14.5 29.0 0.00 0.00 0.00 31 948.1
20260505061558 21 163 14.5 27.4 0.00 0.00 0.00 31 948.3
20260505060059 21 153 14.5 24.1 0.00 0.00 0.00 30 948.2
20260505054558 21 138 14.5 30.6 0.00 0.00 0.00 30 948.1
20260505053056 21 132 19.3 27.4 0.00 0.00 0.00 30 948.2
20260505051556 21 136 14.5 24.1 0.00 0.00 0.00 29 948.2
20260505041554 22 193 19.3 32.2 0.00 0.00 0.00 26 947.7
20260505034553 22 153 9.7 29.0 0.00 0.00 0.00 25 947.7
20260505033052 22 147 22.5 32.2 0.00 0.00 0.00 25 947.5
20260505031558 23 124 12.9 29.0 0.00 0.00 0.00 25 947.3
20260505030057 23 150 22.5 37.0 0.00 0.00 0.00 24 947.0
20260505024553 23 171 20.9 33.8 0.00 0.00 0.00 24 946.8
20260505023051 23 143 19.3 33.8 0.00 0.00 0.00 26 946.7
20260505021550 24 147 19.3 32.2 0.00 0.00 0.00 26 946.7
20260505020051 24 163 17.7 33.8 0.00 0.00 0.00 26 946.8
20260505014602 25 149 14.5 25.7 0.00 0.00 0.00 26 946.8
20260505013047 24 182 14.5 33.8 0.00 0.00 0.00 27 946.8
20260505011551 25 155 16.1 30.6 0.00 0.00 0.00 26 946.8
20260505010045 24 169 16.1 25.7 0.00 0.00 0.00 27 946.9
20260505004545 25 170 19.3 27.4 0.00 0.00 0.00 27 947.0
20260505003044 25 201 16.1 25.7 0.00 0.00 0.00 27 947.1
20260505001546 25 16.1 32.2 0.00 0.00 0.00 25 947.3
20260505000047 25 12.9 30.6 0.00 0.00 0.00 26 947.2
20260504234542 25 16.1 29.0 0.00 0.00 0.00 23 947.2
20260504233042 25 16.1 32.2 0.00 0.00 0.00 22 947.3
20260504231541 25 179 14.5 29.0 0.00 0.00 0.00 25 947.5
20260504230046 25 189 12.9 33.8 0.00 0.00 0.00 25 947.6
20260504224546 25 145 16.1 33.8 0.00 0.00 0.00 28 947.7
20260504223039 24 136 20.9 35.4 0.00 0.00 0.00 29 948.0